Time,TemperatureF,DewpointF,PressureIn,WindDirection,WindDirectionDegrees,WindSpeedMPH,WindSpeedGustMPH,Humidity,HourlyPrecipIn,Conditions,Clouds,dailyrainin,SoftwareType,DateUTC
2013-02-20 00:00:00,25.3,18.8,29.94,West,269,10.0,21.0,76,0.00,,---,0.00,VWS V13.01,2013-02-20 05:00:00,
2013-02-20 00:05:00,25.4,18.0,29.94,SW,232,13.0,17.0,73,0.00,,---,0.00,VWS V13.01,2013-02-20 05:05:00,
2013-02-20 00:10:00,25.7,17.3,29.94,WSW,244,17.0,26.0,70,0.00,,---,0.00,VWS V13.01,2013-02-20 05:10:00,
2013-02-20 00:15:00,25.7,17.6,29.95,SW,221,15.0,26.0,71,0.00,,---,0.00,VWS V13.01,2013-02-20 05:15:00,
2013-02-20 00:20:00,25.7,17.6,29.95,WSW,248,5.0,26.0,71,0.00,,---,0.00,VWS V13.01,2013-02-20 05:20:00,
2013-02-20 00:25:00,25.6,17.5,29.95,SW,224,12.0,26.0,71,0.00,,---,0.00,VWS V13.01,2013-02-20 05:25:00,
2013-02-20 00:30:00,25.6,17.2,29.95,WSW,239,8.0,17.0,70,0.00,,---,0.00,VWS V13.01,2013-02-20 05:30:00,
2013-02-20 00:35:00,25.4,17.0,29.95,WSW,254,8.0,23.0,70,0.00,,---,0.00,VWS V13.01,2013-02-20 05:35:00,
2013-02-20 00:40:00,25.4,17.3,29.94,WSW,238,5.0,23.0,71,0.00,,---,0.00,VWS V13.01,2013-02-20 05:40:00,
2013-02-20 00:45:00,25.3,17.2,29.95,WSW,254,8.0,23.0,71,0.00,,---,0.00,VWS V13.01,2013-02-20 05:45:00,
2013-02-20 00:50:00,25.1,17.7,29.95,West,261,3.0,23.0,73,0.00,,---,0.00,VWS V13.01,2013-02-20 05:50:00,
2013-02-20 00:55:00,24.9,17.5,29.95,WSW,249,4.0,23.0,73,0.00,,---,0.00,VWS V13.01,2013-02-20 05:55:00,
2013-02-20 01:00:00,24.9,18.1,29.95,SW,216,2.0,17.0,75,0.00,,---,0.00,VWS V13.01,2013-02-20 06:00:00,
2013-02-20 01:05:00,24.7,18.2,29.95,WSW,250,3.0,17.0,76,0.00,,---,0.00,VWS V13.01,2013-02-20 06:05:00,
2013-02-20 01:10:00,24.5,18.6,29.96,West,271,7.0,22.0,78,0.00,,---,0.00,VWS V13.01,2013-02-20 06:10:00,
2013-02-20 01:15:00,24.1,18.5,29.96,West,261,7.0,22.0,79,0.00,,---,0.00,VWS V13.01,2013-02-20 06:15:00,
2013-02-20 01:20:00,23.9,18.9,29.96,West,277,4.0,22.0,81,0.00,,---,0.00,VWS V13.01,2013-02-20 06:20:00,
2013-02-20 01:25:00,23.6,18.6,29.96,WNW,288,9.0,22.0,81,0.00,,---,0.00,VWS V13.01,2013-02-20 06:25:00,
2013-02-20 01:30:00,23.5,19.1,29.96,WNW,284,7.0,10.0,83,0.00,,---,0.00,VWS V13.01,2013-02-20 06:30:00,
2013-02-20 01:35:00,23.3,18.9,29.96,WSW,248,6.0,17.0,83,0.00,,---,0.00,VWS V13.01,2013-02-20 06:35:00,
2013-02-20 01:40:00,23.2,19.1,29.96,WSW,253,4.0,17.0,84,0.00,,---,0.00,VWS V13.01,2013-02-20 06:40:00,
2013-02-20 01:45:00,23.1,19.3,29.96,West,279,9.0,17.0,85,0.00,,---,0.00,VWS V13.01,2013-02-20 06:45:00,
2013-02-20 01:50:00,22.9,19.1,29.96,WSW,249,3.0,17.0,85,0.00,,---,0.00,VWS V13.01,2013-02-20 06:50:00,
2013-02-20 01:55:00,22.9,19.1,29.97,West,267,2.0,17.0,85,0.00,,---,0.00,VWS V13.01,2013-02-20 06:55:00,
2013-02-20 02:00:00,22.8,19.0,29.97,West,274,3.0,11.0,85,0.00,,---,0.00,VWS V13.01,2013-02-20 07:00:00,
2013-02-20 02:05:00,22.7,19.1,29.97,WSW,247,10.0,13.0,86,0.00,,---,0.00,VWS V13.01,2013-02-20 07:05:00,
2013-02-20 02:10:00,22.5,18.7,29.97,West,265,7.0,15.0,85,0.00,,---,0.00,VWS V13.01,2013-02-20 07:10:00,
2013-02-20 02:15:00,22.4,18.9,29.97,West,268,4.0,15.0,86,0.00,,---,0.00,VWS V13.01,2013-02-20 07:15:00,
2013-02-20 02:20:00,22.2,18.7,29.97,West,271,4.0,15.0,86,0.00,,---,0.00,VWS V13.01,2013-02-20 07:20:00,
2013-02-20 02:25:00,22.1,18.6,29.97,West,259,8.0,15.0,86,0.00,,---,0.00,VWS V13.01,2013-02-20 07:25:00,
2013-02-20 02:30:00,22.0,18.5,29.97,West,261,7.0,10.0,86,0.00,,---,0.00,VWS V13.01,2013-02-20 07:30:00,
2013-02-20 02:35:00,21.9,18.1,29.97,SSW,213,7.0,13.0,85,0.00,,---,0.00,VWS V13.01,2013-02-20 07:35:00,
2013-02-20 02:40:00,21.9,18.1,29.97,WSW,242,6.0,13.0,85,0.00,,---,0.00,VWS V13.01,2013-02-20 07:40:00,
2013-02-20 02:45:00,21.9,17.5,29.97,WSW,237,7.0,15.0,83,0.00,,---,0.00,VWS V13.01,2013-02-20 07:45:00,
2013-02-20 02:50:00,21.9,17.5,29.97,West,262,11.0,15.0,83,0.00,,---,0.00,VWS V13.01,2013-02-20 07:50:00,
2013-02-20 02:55:00,22.0,17.6,29.96,SW,218,9.0,20.0,83,0.00,,---,0.00,VWS V13.01,2013-02-20 07:55:00,
2013-02-20 03:00:00,22.0,17.6,29.97,WSW,246,4.0,5.0,83,0.00,,---,0.00,VWS V13.01,2013-02-20 08:00:00,
2013-02-20 03:05:00,22.0,17.4,29.97,WSW,257,5.0,15.0,82,0.00,,---,0.00,VWS V13.01,2013-02-20 08:05:00,
2013-02-20 03:10:00,22.1,17.5,29.97,West,277,8.0,15.0,82,0.00,,---,0.00,VWS V13.01,2013-02-20 08:10:00,
2013-02-20 03:15:00,22.1,17.5,29.97,WSW,251,2.0,15.0,82,0.00,,---,0.00,VWS V13.01,2013-02-20 08:15:00,
2013-02-20 03:20:00,22.1,17.7,29.97,West,276,12.0,21.0,83,0.00,,---,0.00,VWS V13.01,2013-02-20 08:20:00,
2013-02-20 03:25:00,21.4,17.9,29.98,West,263,8.0,21.0,86,0.00,,---,0.00,VWS V13.01,2013-02-20 08:25:00,
2013-02-20 03:30:00,21.2,17.7,29.98,West,260,3.0,13.0,86,0.00,,---,0.00,VWS V13.01,2013-02-20 08:30:00,
2013-02-20 03:35:00,21.1,17.6,29.98,SW,233,6.0,16.0,86,0.00,,---,0.00,VWS V13.01,2013-02-20 08:35:00,
2013-02-20 03:40:00,21.2,16.9,29.99,WSW,257,15.0,22.0,83,0.00,,---,0.00,VWS V13.01,2013-02-20 08:40:00,
2013-02-20 03:45:00,21.3,15.8,29.99,SW,231,12.0,22.0,79,0.00,,---,0.00,VWS V13.01,2013-02-20 08:45:00,
2013-02-20 03:50:00,21.3,15.2,29.99,WNW,289,6.0,22.0,77,0.00,,---,0.00,VWS V13.01,2013-02-20 08:50:00,
2013-02-20 03:55:00,21.3,14.6,29.99,WSW,254,7.0,22.0,75,0.00,,---,0.00,VWS V13.01,2013-02-20 08:55:00,
2013-02-20 04:00:00,21.3,14.6,30.00,West,265,10.0,10.0,75,0.00,,---,0.00,VWS V13.01,2013-02-20 09:00:00,
2013-02-20 04:05:00,21.3,14.6,30.00,WSW,241,8.0,13.0,75,0.00,,---,0.00,VWS V13.01,2013-02-20 09:05:00,
2013-02-20 04:10:00,21.1,14.4,30.00,WSW,248,7.0,29.0,75,0.00,,---,0.00,VWS V13.01,2013-02-20 09:10:00,
2013-02-20 04:15:00,20.8,13.5,30.00,West,267,19.0,29.0,73,0.00,,---,0.00,VWS V13.01,2013-02-20 09:15:00,
2013-02-20 04:20:00,20.6,12.7,30.00,WSW,252,16.0,29.0,71,0.00,,---,0.00,VWS V13.01,2013-02-20 09:20:00,
2013-02-20 04:25:00,20.5,12.3,30.00,West,276,14.0,29.0,70,0.00,,---,0.00,VWS V13.01,2013-02-20 09:25:00,
2013-02-20 04:30:00,20.5,12.3,30.00,SW,227,19.0,25.0,70,0.00,,---,0.00,VWS V13.01,2013-02-20 09:30:00,
2013-02-20 04:35:00,20.3,12.1,30.01,West,272,6.0,25.0,70,0.00,,---,0.00,VWS V13.01,2013-02-20 09:35:00,
2013-02-20 04:41:00,20.2,12.0,30.01,West,269,9.0,25.0,70,0.00,,---,0.00,VWS V13.01,2013-02-20 09:41:00,
2013-02-20 04:46:00,20.2,12.3,30.02,WSW,251,9.0,25.0,71,0.00,,---,0.00,VWS V13.01,2013-02-20 09:46:00,
2013-02-20 04:51:00,20.1,12.2,30.02,WSW,248,6.0,25.0,71,0.00,,---,0.00,VWS V13.01,2013-02-20 09:51:00,
2013-02-20 04:56:00,20.1,12.2,30.02,WSW,248,6.0,25.0,71,0.00,,---,0.00,VWS V13.01,2013-02-20 09:56:00,
2013-02-20 05:01:00,20.0,12.4,30.03,West,263,6.0,10.0,72,0.00,,---,0.00,VWS V13.01,2013-02-20 10:01:00,
2013-02-20 05:06:00,19.9,12.3,30.03,SW,220,11.0,20.0,72,0.00,,---,0.00,VWS V13.01,2013-02-20 10:06:00,
2013-02-20 05:11:00,19.9,12.0,30.03,West,261,7.0,20.0,71,0.00,,---,0.00,VWS V13.01,2013-02-20 10:11:00,
2013-02-20 05:16:00,19.8,11.9,30.03,WSW,258,3.0,20.0,71,0.00,,---,0.00,VWS V13.01,2013-02-20 10:16:00,
2013-02-20 05:21:00,19.8,12.2,30.04,WSW,252,7.0,20.0,72,0.00,,---,0.00,VWS V13.01,2013-02-20 10:21:00,
2013-02-20 05:26:00,19.8,11.9,30.04,West,277,8.0,21.0,71,0.00,,---,0.00,VWS V13.01,2013-02-20 10:26:00,
2013-02-20 05:31:00,19.8,11.9,30.04,West,260,7.0,17.0,71,0.00,,---,0.00,VWS V13.01,2013-02-20 10:31:00,
2013-02-20 05:36:00,19.8,11.9,30.05,SW,227,5.0,17.0,71,0.00,,---,0.00,VWS V13.01,2013-02-20 10:36:00,
2013-02-20 05:41:00,19.8,11.9,30.04,West,262,4.0,19.0,71,0.00,,---,0.00,VWS V13.01,2013-02-20 10:41:00,
2013-02-20 05:46:00,19.8,12.2,30.04,WSW,250,8.0,21.0,72,0.00,,---,0.00,VWS V13.01,2013-02-20 10:46:00,
2013-02-20 05:51:00,19.8,12.2,30.05,West,277,9.0,21.0,72,0.00,,---,0.00,VWS V13.01,2013-02-20 10:51:00,
2013-02-20 05:56:00,19.8,12.2,30.05,WNW,291,6.0,21.0,72,0.00,,---,0.00,VWS V13.01,2013-02-20 10:56:00,
2013-02-20 06:01:00,19.8,12.2,30.04,West,265,6.0,14.0,72,0.00,,---,0.00,VWS V13.01,2013-02-20 11:01:00,
2013-02-20 06:06:00,19.8,12.6,30.05,SW,217,3.0,16.0,73,0.00,,---,0.00,VWS V13.01,2013-02-20 11:06:00,
2013-02-20 06:11:00,19.8,12.6,30.05,SW,233,3.0,16.0,73,0.00,,---,0.00,VWS V13.01,2013-02-20 11:11:00,
2013-02-20 06:16:00,19.7,12.5,30.05,WSW,257,13.0,16.0,73,0.00,,---,0.00,VWS V13.01,2013-02-20 11:16:00,
2013-02-20 06:21:00,19.7,12.5,30.05,WSW,257,5.0,16.0,73,0.00,,---,0.00,VWS V13.01,2013-02-20 11:21:00,
2013-02-20 06:26:00,19.7,12.8,30.05,West,277,7.0,17.0,74,0.00,,---,0.00,VWS V13.01,2013-02-20 11:26:00,
2013-02-20 06:31:00,19.7,12.8,30.05,West,272,11.0,11.0,74,0.00,,---,0.00,VWS V13.01,2013-02-20 11:31:00,
2013-02-20 06:36:00,19.7,12.8,30.05,West,261,0.0,14.0,74,0.00,,---,0.00,VWS V13.01,2013-02-20 11:36:00,
2013-02-20 06:41:00,19.7,13.1,30.05,West,265,10.0,14.0,75,0.00,,---,0.00,VWS V13.01,2013-02-20 11:41:00,
2013-02-20 06:46:00,19.7,13.1,30.06,WSW,250,6.0,14.0,75,0.00,,---,0.00,VWS V13.01,2013-02-20 11:46:00,
2013-02-20 06:51:00,19.6,13.3,30.06,SW,234,10.0,14.0,76,0.00,,---,0.00,VWS V13.01,2013-02-20 11:51:00,
2013-02-20 06:56:00,19.6,13.0,30.05,West,260,9.0,14.0,75,0.00,,---,0.00,VWS V13.01,2013-02-20 11:56:00,
2013-02-20 07:01:00,19.7,12.5,30.06,WSW,251,14.0,14.0,73,0.00,,---,0.00,VWS V13.01,2013-02-20 12:01:00,
2013-02-20 07:06:00,19.7,11.5,30.06,WSW,245,14.0,22.0,70,0.00,,---,0.00,VWS V13.01,2013-02-20 12:06:00,
2013-02-20 07:11:00,19.7,11.5,30.07,WSW,248,12.0,22.0,70,0.00,,---,0.00,VWS V13.01,2013-02-20 12:11:00,
2013-02-20 07:16:00,19.7,11.5,30.07,West,273,10.0,22.0,70,0.00,,---,0.00,VWS V13.01,2013-02-20 12:16:00,
2013-02-20 07:21:00,19.5,11.6,30.07,WSW,252,13.0,22.0,71,0.00,,---,0.00,VWS V13.01,2013-02-20 12:21:00,
2013-02-20 07:26:00,19.4,11.6,30.07,WSW,248,12.0,22.0,71,0.00,,---,0.00,VWS V13.01,2013-02-20 12:26:00,
2013-02-20 07:31:00,19.4,11.6,30.07,WSW,240,12.0,15.0,71,0.00,,---,0.00,VWS V13.01,2013-02-20 12:31:00,
2013-02-20 07:36:00,19.4,11.6,30.08,West,264,7.0,18.0,71,0.00,,---,0.00,VWS V13.01,2013-02-20 12:36:00,
2013-02-20 07:41:00,19.3,12.1,30.08,WSW,237,6.0,18.0,73,0.00,,---,0.00,VWS V13.01,2013-02-20 12:41:00,
2013-02-20 07:46:00,19.3,12.1,30.08,West,269,7.0,18.0,73,0.00,,---,0.00,VWS V13.01,2013-02-20 12:46:00,
2013-02-20 07:51:00,19.1,12.2,30.08,West,271,10.0,18.0,74,0.00,,---,0.00,VWS V13.01,2013-02-20 12:51:00,
2013-02-20 07:56:00,19.0,12.4,30.08,West,260,4.0,18.0,75,0.00,,---,0.00,VWS V13.01,2013-02-20 12:56:00,
2013-02-20 08:01:00,19.0,12.7,30.08,WSW,243,12.0,15.0,76,0.00,,---,0.00,VWS V13.01,2013-02-20 13:01:00,
2013-02-20 08:06:00,19.0,13.0,30.08,West,261,5.0,15.0,77,0.00,,---,0.00,VWS V13.01,2013-02-20 13:06:00,
2013-02-20 08:11:00,19.0,13.3,30.09,West,269,5.0,15.0,78,0.00,,---,0.00,VWS V13.01,2013-02-20 13:11:00,
2013-02-20 08:16:00,19.1,13.1,30.09,West,262,11.0,20.0,77,0.00,,---,0.00,VWS V13.01,2013-02-20 13:16:00,
2013-02-20 08:21:00,19.1,13.1,30.09,WSW,240,6.0,20.0,77,0.00,,---,0.00,VWS V13.01,2013-02-20 13:21:00,
2013-02-20 08:26:00,19.1,12.5,30.09,West,276,6.0,20.0,75,0.00,,---,0.00,VWS V13.01,2013-02-20 13:26:00,
2013-02-20 08:31:00,19.2,12.3,30.09,SW,226,10.0,15.0,74,0.00,,---,0.00,VWS V13.01,2013-02-20 13:31:00,
2013-02-20 08:36:00,19.3,12.4,30.09,WSW,242,7.0,21.0,74,0.00,,---,0.00,VWS V13.01,2013-02-20 13:36:00,
2013-02-20 08:41:00,19.3,12.4,30.09,SW,223,4.0,21.0,74,0.00,,---,0.00,VWS V13.01,2013-02-20 13:41:00,
2013-02-20 08:46:00,19.3,12.4,30.09,WSW,258,6.0,21.0,74,0.00,,---,0.00,VWS V13.01,2013-02-20 13:46:00,
2013-02-20 08:51:00,19.3,12.7,30.09,SW,221,9.0,21.0,75,0.00,,---,0.00,VWS V13.01,2013-02-20 13:51:00,
2013-02-20 08:56:00,19.3,13.0,30.09,West,277,9.0,21.0,76,0.00,,---,0.00,VWS V13.01,2013-02-20 13:56:00,
2013-02-20 09:01:00,19.3,13.3,30.09,WSW,258,4.0,8.0,77,0.00,,---,0.00,VWS V13.01,2013-02-20 14:01:00,
2013-02-20 09:06:00,19.2,13.5,30.10,WSW,252,6.0,12.0,78,0.00,,---,0.00,VWS V13.01,2013-02-20 14:06:00,
2013-02-20 09:11:00,19.2,14.1,30.10,West,269,3.0,14.0,80,0.00,,---,0.00,VWS V13.01,2013-02-20 14:11:00,
2013-02-20 09:16:00,19.2,14.1,30.10,West,267,4.0,14.0,80,0.00,,---,0.00,VWS V13.01,2013-02-20 14:16:00,
2013-02-20 09:21:00,19.1,14.0,30.10,WSW,257,5.0,14.0,80,0.00,,---,0.00,VWS V13.01,2013-02-20 14:21:00,
2013-02-20 09:26:00,19.1,14.2,30.10,WNW,298,9.0,14.0,81,0.00,,---,0.00,VWS V13.01,2013-02-20 14:26:00,
2013-02-20 09:31:00,19.1,14.5,30.10,West,277,8.0,13.0,82,0.00,,---,0.00,VWS V13.01,2013-02-20 14:31:00,
2013-02-20 09:36:00,19.0,14.4,30.10,WSW,244,12.0,17.0,82,0.00,,---,0.00,VWS V13.01,2013-02-20 14:36:00,
2013-02-20 09:41:00,19.2,14.6,30.10,WNW,288,5.0,17.0,82,0.00,,---,0.00,VWS V13.01,2013-02-20 14:41:00,
2013-02-20 09:46:00,19.3,14.4,30.10,WSW,248,16.0,17.0,81,0.00,,---,0.00,VWS V13.01,2013-02-20 14:46:00,
2013-02-20 09:51:00,19.5,14.4,30.10,WNW,290,8.0,17.0,80,0.00,,---,0.00,VWS V13.01,2013-02-20 14:51:00,
2013-02-20 09:56:00,19.5,14.4,30.10,West,269,8.0,17.0,80,0.00,,---,0.00,VWS V13.01,2013-02-20 14:56:00,
2013-02-20 10:01:00,19.7,14.5,30.10,SW,223,7.0,14.0,80,0.00,,---,0.00,VWS V13.01,2013-02-20 15:01:00,
2013-02-20 10:06:00,19.8,14.6,30.10,WSW,257,10.0,14.0,80,0.00,,---,0.00,VWS V13.01,2013-02-20 15:06:00,
2013-02-20 10:11:00,20.0,14.0,30.10,West,279,7.0,14.0,77,0.00,,---,0.00,VWS V13.01,2013-02-20 15:11:00,
2013-02-20 10:16:00,20.0,13.7,30.11,West,277,7.0,17.0,76,0.00,,---,0.00,VWS V13.01,2013-02-20 15:16:00,
2013-02-20 10:21:00,19.9,14.2,30.11,West,273,5.0,17.0,78,0.00,,---,0.00,VWS V13.01,2013-02-20 15:21:00,
2013-02-20 10:26:00,19.9,14.4,30.11,WSW,244,10.0,17.0,79,0.00,,---,0.00,VWS V13.01,2013-02-20 15:26:00,
2013-02-20 10:31:00,19.9,13.6,30.11,WSW,240,7.0,14.0,76,0.00,,---,0.00,VWS V13.01,2013-02-20 15:31:00,
2013-02-20 10:36:00,19.9,12.3,30.11,SW,217,9.0,20.0,72,0.00,,---,0.00,VWS V13.01,2013-02-20 15:36:00,
2013-02-20 10:41:00,20.0,12.4,30.11,West,260,6.0,20.0,72,0.00,,---,0.00,VWS V13.01,2013-02-20 15:41:00,
2013-02-20 10:46:00,20.1,12.2,30.12,WNW,293,9.0,20.0,71,0.00,,---,0.00,VWS V13.01,2013-02-20 15:46:00,
2013-02-20 10:51:00,20.0,13.1,30.11,SW,230,9.0,20.0,74,0.00,,---,0.00,VWS V13.01,2013-02-20 15:51:00,
2013-02-20 10:56:00,20.1,13.8,30.11,WSW,238,6.0,23.0,76,0.00,,---,0.00,VWS V13.01,2013-02-20 15:56:00,
2013-02-20 11:01:00,20.6,14.8,30.11,WSW,244,6.0,15.0,78,0.00,,---,0.00,VWS V13.01,2013-02-20 16:01:00,
2013-02-20 11:06:00,20.8,14.7,30.11,WSW,240,8.0,15.0,77,0.00,,---,0.00,VWS V13.01,2013-02-20 16:06:00,
2013-02-20 11:11:00,20.8,14.7,30.11,SW,231,9.0,16.0,77,0.00,,---,0.00,VWS V13.01,2013-02-20 16:11:00,
2013-02-20 11:16:00,20.5,15.0,30.11,SW,232,6.0,17.0,79,0.00,,---,0.00,VWS V13.01,2013-02-20 16:16:00,
2013-02-20 11:21:00,20.4,14.9,30.11,WSW,247,10.0,17.0,79,0.00,,---,0.00,VWS V13.01,2013-02-20 16:21:00,
2013-02-20 11:26:00,20.3,15.4,30.11,WNW,298,5.0,17.0,81,0.00,,---,0.00,VWS V13.01,2013-02-20 16:26:00,
2013-02-20 11:31:00,20.2,15.0,30.11,West,266,8.0,16.0,80,0.00,,---,0.00,VWS V13.01,2013-02-20 16:31:00,
2013-02-20 11:36:00,20.2,13.9,30.11,West,261,14.0,24.0,76,0.00,,---,0.00,VWS V13.01,2013-02-20 16:36:00,
2013-02-20 11:41:00,20.5,14.1,30.11,WSW,248,6.0,24.0,76,0.00,,---,0.00,VWS V13.01,2013-02-20 16:41:00,
2013-02-20 11:46:00,20.8,14.1,30.11,SW,223,7.0,24.0,75,0.00,,---,0.00,VWS V13.01,2013-02-20 16:46:00,
2013-02-20 11:51:00,21.1,12.5,30.12,WNW,299,9.0,24.0,69,0.00,,---,0.00,VWS V13.01,2013-02-20 16:51:00,
2013-02-20 11:56:00,21.2,11.6,30.12,WNW,290,10.0,26.0,66,0.00,,---,0.00,VWS V13.01,2013-02-20 16:56:00,
2013-02-20 12:01:00,21.6,12.4,30.12,NW,309,4.0,16.0,67,0.00,,---,0.00,VWS V13.01,2013-02-20 17:01:00,
2013-02-20 12:06:00,21.9,12.6,30.12,SW,226,9.0,16.0,67,0.00,,---,0.00,VWS V13.01,2013-02-20 17:06:00,
2013-02-20 12:11:00,21.7,12.1,30.12,SW,234,8.0,19.0,66,0.00,,---,0.00,VWS V13.01,2013-02-20 17:11:00,
2013-02-20 12:16:00,21.5,12.6,30.12,West,270,8.0,19.0,68,0.00,,---,0.00,VWS V13.01,2013-02-20 17:16:00,
2013-02-20 12:21:00,21.6,12.4,30.12,WSW,250,12.0,19.0,67,0.00,,---,0.00,VWS V13.01,2013-02-20 17:21:00,
2013-02-20 12:26:00,21.7,12.4,30.12,WNW,299,6.0,19.0,67,0.00,,---,0.00,VWS V13.01,2013-02-20 17:26:00,
2013-02-20 12:31:00,21.8,12.2,30.12,WSW,254,9.0,18.0,66,0.00,,---,0.00,VWS V13.01,2013-02-20 17:31:00,
2013-02-20 12:36:00,21.9,12.0,30.12,WNW,298,11.0,18.0,65,0.00,,---,0.00,VWS V13.01,2013-02-20 17:36:00,
2013-02-20 12:41:00,22.1,12.1,30.12,West,269,5.0,18.0,65,0.00,,---,0.00,VWS V13.01,2013-02-20 17:41:00,
2013-02-20 12:46:00,22.0,10.6,30.12,West,264,9.0,25.0,61,0.00,,---,0.00,VWS V13.01,2013-02-20 17:46:00,
2013-02-20 12:51:00,21.8,10.4,30.12,West,281,8.0,25.0,61,0.00,,---,0.00,VWS V13.01,2013-02-20 17:51:00,
2013-02-20 12:57:00,22.2,11.2,30.12,WNW,295,13.0,25.0,62,0.00,,---,0.00,VWS V13.01,2013-02-20 17:57:00,
2013-02-20 13:02:00,22.3,11.6,30.12,West,262,19.0,24.0,63,0.00,,---,0.00,VWS V13.01,2013-02-20 18:02:00,
2013-02-20 13:07:00,22.1,12.8,30.12,SSW,208,14.0,24.0,67,0.00,,---,0.00,VWS V13.01,2013-02-20 18:07:00,
2013-02-20 13:12:00,21.8,11.9,30.12,WSW,254,12.0,27.0,65,0.00,,---,0.00,VWS V13.01,2013-02-20 18:12:00,
2013-02-20 13:17:00,21.8,11.5,30.13,WNW,284,14.0,27.0,64,0.00,,---,0.00,VWS V13.01,2013-02-20 18:17:00,
2013-02-20 13:22:00,21.8,11.2,30.13,SW,236,11.0,27.0,63,0.00,,---,0.00,VWS V13.01,2013-02-20 18:22:00,
2013-02-20 13:27:00,22.0,11.0,30.12,West,265,5.0,27.0,62,0.00,,---,0.00,VWS V13.01,2013-02-20 18:27:00,
2013-02-20 13:32:00,22.4,12.1,30.13,WSW,244,8.0,15.0,64,0.00,,---,0.00,VWS V13.01,2013-02-20 18:32:00,
2013-02-20 13:37:00,22.7,12.4,30.13,WSW,240,8.0,18.0,64,0.00,,---,0.00,VWS V13.01,2013-02-20 18:37:00,
2013-02-20 13:42:00,22.9,12.9,30.13,WSW,252,6.0,20.0,65,0.00,,---,0.00,VWS V13.01,2013-02-20 18:42:00,
2013-02-20 13:47:00,22.8,12.5,30.13,SW,229,8.0,20.0,64,0.00,,---,0.00,VWS V13.01,2013-02-20 18:47:00,
2013-02-20 13:52:00,22.5,11.8,30.14,SW,224,6.0,20.0,63,0.00,,---,0.00,VWS V13.01,2013-02-20 18:52:00,
2013-02-20 13:57:00,22.3,11.3,30.14,West,272,12.0,20.0,62,0.00,,---,0.00,VWS V13.01,2013-02-20 18:57:00,
2013-02-20 14:02:00,22.2,10.8,30.14,West,277,14.0,19.0,61,0.00,,---,0.00,VWS V13.01,2013-02-20 19:02:00,
2013-02-20 14:07:00,22.2,10.1,30.14,WSW,246,5.0,19.0,59,0.00,,---,0.00,VWS V13.01,2013-02-20 19:07:00,
2013-02-20 14:12:00,22.2,10.8,30.14,SW,234,15.0,19.0,61,0.00,,---,0.00,VWS V13.01,2013-02-20 19:12:00,
2013-02-20 14:17:00,22.1,11.1,30.14,WSW,242,11.0,19.0,62,0.00,,---,0.00,VWS V13.01,2013-02-20 19:17:00,
2013-02-20 14:22:00,22.1,11.1,30.14,SSW,205,7.0,19.0,62,0.00,,---,0.00,VWS V13.01,2013-02-20 19:22:00,
2013-02-20 14:27:00,21.9,11.2,30.15,WNW,290,14.0,19.0,63,0.00,,---,0.00,VWS V13.01,2013-02-20 19:27:00,
2013-02-20 14:32:00,21.8,11.9,30.15,SW,236,12.0,19.0,65,0.00,,---,0.00,VWS V13.01,2013-02-20 19:32:00,
2013-02-20 14:37:00,21.8,11.2,30.15,WSW,250,11.0,19.0,63,0.00,,---,0.00,VWS V13.01,2013-02-20 19:37:00,
2013-02-20 14:42:00,21.9,11.6,30.14,WNW,284,4.0,19.0,64,0.00,,---,0.00,VWS V13.01,2013-02-20 19:42:00,
2013-02-20 14:47:00,22.0,11.7,30.15,SW,232,12.0,19.0,64,0.00,,---,0.00,VWS V13.01,2013-02-20 19:47:00,
2013-02-20 14:52:00,22.1,11.8,30.15,SW,229,11.0,19.0,64,0.00,,---,0.00,VWS V13.01,2013-02-20 19:52:00,
2013-02-20 14:57:00,22.1,11.4,30.15,SW,227,9.0,19.0,63,0.00,,---,0.00,VWS V13.01,2013-02-20 19:57:00,
2013-02-20 15:02:00,22.1,11.4,30.15,WSW,241,17.0,21.0,63,0.00,,---,0.00,VWS V13.01,2013-02-20 20:02:00,
2013-02-20 15:07:00,22.0,12.7,30.16,WSW,246,3.0,21.0,67,0.00,,---,0.00,VWS V13.01,2013-02-20 20:07:00,
2013-02-20 15:12:00,22.8,12.5,30.16,SW,222,6.0,21.0,64,0.00,,---,0.00,VWS V13.01,2013-02-20 20:12:00,
2013-02-20 15:17:00,23.0,11.9,30.16,WSW,256,6.0,21.0,62,0.00,,---,0.00,VWS V13.01,2013-02-20 20:17:00,
2013-02-20 15:22:00,22.9,11.5,30.16,WNW,290,5.0,21.0,61,0.00,,---,0.00,VWS V13.01,2013-02-20 20:22:00,
2013-02-20 15:27:00,22.8,11.8,30.16,WSW,241,8.0,21.0,62,0.00,,---,0.00,VWS V13.01,2013-02-20 20:27:00,
2013-02-20 15:32:00,22.4,12.1,30.16,WSW,240,11.0,21.0,64,0.00,,---,0.00,VWS V13.01,2013-02-20 20:32:00,
2013-02-20 15:37:00,22.0,12.7,30.16,WSW,246,12.0,23.0,67,0.00,,---,0.00,VWS V13.01,2013-02-20 20:37:00,
2013-02-20 15:42:00,21.7,12.8,30.16,West,276,5.0,23.0,68,0.00,,---,0.00,VWS V13.01,2013-02-20 20:42:00,
2013-02-20 15:47:00,22.0,11.4,30.17,WNW,286,7.0,23.0,63,0.00,,---,0.00,VWS V13.01,2013-02-20 20:47:00,
2013-02-20 15:52:00,22.3,10.9,30.17,West,261,20.0,23.0,61,0.00,,---,0.00,VWS V13.01,2013-02-20 20:52:00,
2013-02-20 15:57:00,22.3,10.5,30.17,SW,229,16.0,23.0,60,0.00,,---,0.00,VWS V13.01,2013-02-20 20:57:00,
2013-02-20 16:02:00,22.4,11.0,30.17,West,279,10.0,16.0,61,0.00,,---,0.00,VWS V13.01,2013-02-20 21:02:00,
2013-02-20 16:07:00,22.4,11.0,30.18,West,265,6.0,17.0,61,0.00,,---,0.00,VWS V13.01,2013-02-20 21:07:00,
2013-02-20 16:12:00,22.5,11.5,30.18,WSW,252,9.0,18.0,62,0.00,,---,0.00,VWS V13.01,2013-02-20 21:12:00,
2013-02-20 16:17:00,22.3,13.0,30.19,WSW,246,12.0,18.0,67,0.00,,---,0.00,VWS V13.01,2013-02-20 21:17:00,
2013-02-20 16:22:00,21.9,13.3,30.19,WSW,252,9.0,21.0,69,0.00,,---,0.00,VWS V13.01,2013-02-20 21:22:00,
2013-02-20 16:27:00,21.7,13.1,30.20,WSW,245,7.0,21.0,69,0.00,,---,0.00,VWS V13.01,2013-02-20 21:27:00,
2013-02-20 16:32:00,21.8,12.9,30.19,SW,227,5.0,13.0,68,0.00,,---,0.00,VWS V13.01,2013-02-20 21:32:00,
2013-02-20 16:37:00,22.0,12.7,30.19,West,277,9.0,14.0,67,0.00,,---,0.00,VWS V13.01,2013-02-20 21:37:00,
2013-02-20 16:42:00,22.1,12.8,30.20,West,262,5.0,14.0,67,0.00,,---,0.00,VWS V13.01,2013-02-20 21:42:00,
2013-02-20 16:47:00,22.1,13.2,30.20,SSW,211,7.0,14.0,68,0.00,,---,0.00,VWS V13.01,2013-02-20 21:47:00,
2013-02-20 16:52:00,22.0,13.7,30.21,WSW,253,4.0,14.0,70,0.00,,---,0.00,VWS V13.01,2013-02-20 21:52:00,
2013-02-20 16:57:00,21.7,14.1,30.21,WSW,252,9.0,17.0,72,0.00,,---,0.00,VWS V13.01,2013-02-20 21:57:00,
2013-02-20 17:02:00,21.4,14.7,30.21,WSW,250,6.0,14.0,75,0.00,,---,0.00,VWS V13.01,2013-02-20 22:02:00,
2013-02-20 17:07:00,21.0,14.3,30.22,WSW,244,3.0,18.0,75,0.00,,---,0.00,VWS V13.01,2013-02-20 22:07:00,
2013-02-20 17:12:00,20.9,14.2,30.22,SW,230,6.0,18.0,75,0.00,,---,0.00,VWS V13.01,2013-02-20 22:12:00,
2013-02-20 17:17:00,21.0,14.6,30.22,West,267,4.0,18.0,76,0.00,,---,0.00,VWS V13.01,2013-02-20 22:17:00,
2013-02-20 17:22:00,21.0,14.0,30.22,West,261,6.0,18.0,74,0.00,,---,0.00,VWS V13.01,2013-02-20 22:22:00,
2013-02-20 17:27:00,21.2,14.2,30.22,West,267,4.0,18.0,74,0.00,,---,0.00,VWS V13.01,2013-02-20 22:27:00,
2013-02-20 17:32:00,21.1,14.4,30.22,WSW,250,7.0,15.0,75,0.00,,---,0.00,VWS V13.01,2013-02-20 22:32:00,
2013-02-20 17:37:00,20.8,14.1,30.23,WSW,242,8.0,15.0,75,0.00,,---,0.00,VWS V13.01,2013-02-20 22:37:00,
2013-02-20 17:42:00,20.7,14.4,30.22,WSW,238,8.0,15.0,76,0.00,,---,0.00,VWS V13.01,2013-02-20 22:42:00,
2013-02-20 17:47:00,20.7,14.4,30.22,WSW,243,6.0,15.0,76,0.00,,---,0.00,VWS V13.01,2013-02-20 22:47:00,
2013-02-20 17:52:00,20.6,14.2,30.22,SW,230,3.0,15.0,76,0.00,,---,0.00,VWS V13.01,2013-02-20 22:52:00,
2013-02-20 17:57:00,20.6,14.2,30.23,West,260,7.0,15.0,76,0.00,,---,0.00,VWS V13.01,2013-02-20 22:57:00,
2013-02-20 18:02:00,20.6,13.9,30.23,West,275,5.0,10.0,75,0.00,,---,0.00,VWS V13.01,2013-02-20 23:02:00,
2013-02-20 18:07:00,20.7,14.0,30.23,WNW,287,6.0,10.0,75,0.00,,---,0.00,VWS V13.01,2013-02-20 23:07:00,
2013-02-20 18:12:00,20.7,14.4,30.23,WSW,241,11.0,11.0,76,0.00,,---,0.00,VWS V13.01,2013-02-20 23:12:00,
2013-02-20 18:17:00,20.7,14.0,30.23,NW,305,4.0,15.0,75,0.00,,---,0.00,VWS V13.01,2013-02-20 23:17:00,
2013-02-20 18:22:00,20.7,14.0,30.24,WNW,287,7.0,15.0,75,0.00,,---,0.00,VWS V13.01,2013-02-20 23:22:00,
2013-02-20 18:27:00,20.7,14.0,30.24,WSW,250,3.0,15.0,75,0.00,,---,0.00,VWS V13.01,2013-02-20 23:27:00,
2013-02-20 18:32:00,20.7,14.4,30.24,West,275,4.0,8.0,76,0.00,,---,0.00,VWS V13.01,2013-02-20 23:32:00,
2013-02-20 18:37:00,20.7,14.0,30.24,WSW,249,3.0,12.0,75,0.00,,---,0.00,VWS V13.01,2013-02-20 23:37:00,
2013-02-20 18:42:00,20.7,14.0,30.25,West,260,2.0,12.0,75,0.00,,---,0.00,VWS V13.01,2013-02-20 23:42:00,
2013-02-20 18:47:00,20.7,14.4,30.24,WSW,241,3.0,12.0,76,0.00,,---,0.00,VWS V13.01,2013-02-20 23:47:00,
2013-02-20 18:52:00,20.7,14.4,30.24,WSW,238,6.0,12.0,76,0.00,,---,0.00,VWS V13.01,2013-02-20 23:52:00,
2013-02-20 18:57:00,20.7,14.4,30.24,West,261,9.0,12.0,76,0.00,,---,0.00,VWS V13.01,2013-02-20 23:57:00,
2013-02-20 19:02:00,20.7,14.4,30.24,West,265,7.0,13.0,76,0.00,,---,0.00,VWS V13.01,2013-02-21 00:02:00,
2013-02-20 19:07:00,20.6,14.2,30.24,West,259,5.0,13.0,76,0.00,,---,0.00,VWS V13.01,2013-02-21 00:07:00,
2013-02-20 19:12:00,20.6,14.2,30.24,WSW,254,5.0,13.0,76,0.00,,---,0.00,VWS V13.01,2013-02-21 00:12:00,
2013-02-20 19:17:00,20.6,14.2,30.24,SW,230,7.0,13.0,76,0.00,,---,0.00,VWS V13.01,2013-02-21 00:17:00,
2013-02-20 19:22:00,20.6,13.9,30.24,WSW,244,5.0,13.0,75,0.00,,---,0.00,VWS V13.01,2013-02-21 00:22:00,
2013-02-20 19:27:00,20.7,14.0,30.24,WNW,286,6.0,13.0,75,0.00,,---,0.00,VWS V13.01,2013-02-21 00:27:00,
2013-02-20 19:32:00,20.7,14.0,30.24,West,266,5.0,11.0,75,0.00,,---,0.00,VWS V13.01,2013-02-21 00:32:00,
2013-02-20 19:37:00,20.7,14.4,30.24,WSW,243,5.0,11.0,76,0.00,,---,0.00,VWS V13.01,2013-02-21 00:37:00,
2013-02-20 19:42:00,20.7,15.2,30.24,SW,232,7.0,11.0,79,0.00,,---,0.00,VWS V13.01,2013-02-21 00:42:00,
2013-02-20 19:47:00,20.2,15.6,30.24,West,270,3.0,11.0,82,0.00,,---,0.00,VWS V13.01,2013-02-21 00:47:00,
2013-02-20 19:52:00,20.0,15.7,30.24,WSW,254,3.0,11.0,83,0.00,,---,0.00,VWS V13.01,2013-02-21 00:52:00,
2013-02-20 19:57:00,19.9,15.6,30.24,WSW,245,5.0,11.0,83,0.00,,---,0.00,VWS V13.01,2013-02-21 00:57:00,
2013-02-20 20:02:00,19.9,15.3,30.24,West,266,3.0,10.0,82,0.00,,---,0.00,VWS V13.01,2013-02-21 01:02:00,
2013-02-20 20:07:00,20.0,14.8,30.24,SW,234,4.0,10.0,80,0.00,,---,0.00,VWS V13.01,2013-02-21 01:07:00,
2013-02-20 20:12:00,20.2,15.0,30.24,SW,232,3.0,10.0,80,0.00,,---,0.00,VWS V13.01,2013-02-21 01:12:00,
2013-02-20 20:17:00,20.2,15.0,30.24,WSW,249,6.0,10.0,80,0.00,,---,0.00,VWS V13.01,2013-02-21 01:17:00,
2013-02-20 20:22:00,20.2,14.7,30.24,WSW,244,6.0,10.0,79,0.00,,---,0.00,VWS V13.01,2013-02-21 01:22:00,
2013-02-20 20:27:00,20.1,14.6,30.24,WSW,246,10.0,11.0,79,0.00,,---,0.00,VWS V13.01,2013-02-21 01:27:00,
2013-02-20 20:32:00,20.1,14.6,30.24,SW,227,7.0,14.0,79,0.00,,---,0.00,VWS V13.01,2013-02-21 01:32:00,
2013-02-20 20:37:00,20.2,14.7,30.25,WSW,243,4.0,14.0,79,0.00,,---,0.00,VWS V13.01,2013-02-21 01:37:00,
2013-02-20 20:42:00,20.2,14.4,30.25,WSW,247,7.0,14.0,78,0.00,,---,0.00,VWS V13.01,2013-02-21 01:42:00,
2013-02-20 20:47:00,20.3,14.6,30.25,SW,236,7.0,14.0,78,0.00,,---,0.00,VWS V13.01,2013-02-21 01:47:00,
2013-02-20 20:52:00,20.3,14.6,30.25,West,267,4.0,14.0,78,0.00,,---,0.00,VWS V13.01,2013-02-21 01:52:00,
2013-02-20 20:57:00,20.4,14.6,30.25,WSW,252,4.0,14.0,78,0.00,,---,0.00,VWS V13.01,2013-02-21 01:57:00,
2013-02-20 21:02:00,20.4,14.9,30.25,West,274,6.0,8.0,79,0.00,,---,0.00,VWS V13.01,2013-02-21 02:02:00,
2013-02-20 21:07:00,20.3,15.1,30.25,West,267,6.0,14.0,80,0.00,,---,0.00,VWS V13.01,2013-02-21 02:07:00,
2013-02-20 21:12:00,20.1,15.5,30.25,WSW,256,5.0,14.0,82,0.00,,---,0.00,VWS V13.01,2013-02-21 02:12:00,
2013-02-20 21:17:00,19.9,15.0,30.25,West,267,3.0,14.0,81,0.00,,---,0.00,VWS V13.01,2013-02-21 02:17:00,
2013-02-20 21:22:00,19.8,14.9,30.25,WSW,251,6.0,14.0,81,0.00,,---,0.00,VWS V13.01,2013-02-21 02:22:00,
2013-02-20 21:27:00,19.8,14.6,30.25,West,261,5.0,14.0,80,0.00,,---,0.00,VWS V13.01,2013-02-21 02:27:00,
2013-02-20 21:32:00,19.9,14.4,30.25,WNW,287,3.0,8.0,79,0.00,,---,0.00,VWS V13.01,2013-02-21 02:32:00,
2013-02-20 21:37:00,20.0,14.6,30.26,West,265,6.0,8.0,79,0.00,,---,0.00,VWS V13.01,2013-02-21 02:37:00,
2013-02-20 21:42:00,20.1,14.6,30.26,WSW,257,5.0,9.0,79,0.00,,---,0.00,VWS V13.01,2013-02-21 02:42:00,
2013-02-20 21:47:00,20.1,14.6,30.26,WSW,242,5.0,12.0,79,0.00,,---,0.00,VWS V13.01,2013-02-21 02:47:00,
2013-02-20 21:52:00,20.0,15.4,30.26,WNW,284,6.0,12.0,82,0.00,,---,0.00,VWS V13.01,2013-02-21 02:52:00,
2013-02-20 21:57:00,19.8,15.5,30.26,West,275,2.0,12.0,83,0.00,,---,0.00,VWS V13.01,2013-02-21 02:57:00,
2013-02-20 22:02:00,19.7,15.4,30.26,West,280,3.0,5.0,83,0.00,,---,0.00,VWS V13.01,2013-02-21 03:02:00,
2013-02-20 22:07:00,19.7,15.4,30.26,WSW,247,2.0,5.0,83,0.00,,---,0.00,VWS V13.01,2013-02-21 03:07:00,
2013-02-20 22:12:00,19.7,15.4,30.26,West,267,3.0,6.0,83,0.00,,---,0.00,VWS V13.01,2013-02-21 03:12:00,
2013-02-20 22:17:00,19.7,15.4,30.26,WSW,249,3.0,8.0,83,0.00,,---,0.00,VWS V13.01,2013-02-21 03:17:00,
2013-02-20 22:22:00,19.8,15.5,30.26,WSW,248,4.0,8.0,83,0.00,,---,0.00,VWS V13.01,2013-02-21 03:22:00,
2013-02-20 22:27:00,19.7,15.4,30.26,WSW,244,4.0,11.0,83,0.00,,---,0.00,VWS V13.01,2013-02-21 03:27:00,
2013-02-20 22:32:00,19.7,15.7,30.26,WSW,257,1.0,6.0,84,0.00,,---,0.00,VWS V13.01,2013-02-21 03:32:00,
2013-02-20 22:37:00,19.7,15.4,30.26,WSW,250,4.0,10.0,83,0.00,,---,0.00,VWS V13.01,2013-02-21 03:37:00,
2013-02-20 22:42:00,19.7,15.1,30.26,WSW,247,7.0,10.0,82,0.00,,---,0.00,VWS V13.01,2013-02-21 03:42:00,
2013-02-20 22:47:00,19.8,14.9,30.26,SW,236,7.0,10.0,81,0.00,,---,0.00,VWS V13.01,2013-02-21 03:47:00,
2013-02-20 22:52:00,19.8,14.9,30.26,WSW,238,5.0,13.0,81,0.00,,---,0.00,VWS V13.01,2013-02-21 03:52:00,
2013-02-20 22:57:00,19.8,15.2,30.25,WSW,249,5.0,13.0,82,0.00,,---,0.00,VWS V13.01,2013-02-21 03:57:00,
2013-02-20 23:03:00,19.7,15.1,30.25,WSW,241,3.0,10.0,82,0.00,,---,0.00,VWS V13.01,2013-02-21 04:03:00,
2013-02-20 23:08:00,19.7,15.4,30.25,West,270,3.0,13.0,83,0.00,,---,0.00,VWS V13.01,2013-02-21 04:08:00,
2013-02-20 23:13:00,19.6,15.3,30.25,West,261,4.0,13.0,83,0.00,,---,0.00,VWS V13.01,2013-02-21 04:13:00,
2013-02-20 23:18:00,19.6,15.3,30.25,SW,230,5.0,13.0,83,0.00,,---,0.00,VWS V13.01,2013-02-21 04:18:00,
2013-02-20 23:23:00,19.5,14.9,30.25,SW,231,5.0,13.0,82,0.00,,---,0.00,VWS V13.01,2013-02-21 04:23:00,
2013-02-20 23:28:00,19.5,14.9,30.24,WSW,248,4.0,13.0,82,0.00,,---,0.00,VWS V13.01,2013-02-21 04:28:00,
2013-02-20 23:33:00,19.4,14.5,30.24,WSW,257,4.0,9.0,81,0.00,,---,0.00,VWS V13.01,2013-02-21 04:33:00,
2013-02-20 23:38:00,19.3,14.1,30.24,SW,223,6.0,9.0,80,0.00,,---,0.00,VWS V13.01,2013-02-21 04:38:00,
2013-02-20 23:43:00,19.1,14.0,30.24,WSW,237,3.0,9.0,80,0.00,,---,0.00,VWS V13.01,2013-02-21 04:43:00,
2013-02-20 23:48:00,19.0,13.9,30.24,West,259,6.0,9.0,80,0.00,,---,0.00,VWS V13.01,2013-02-21 04:48:00,
2013-02-20 23:53:00,18.9,13.8,30.24,West,263,3.0,9.0,80,0.00,,---,0.00,VWS V13.01,2013-02-21 04:53:00,
2013-02-20 23:58:00,18.9,13.8,30.24,West,269,3.0,9.0,80,0.00,,---,0.00,VWS V13.01,2013-02-21 04:58:00,